星链-11229 (STARLINK-11229)

导读 | 豆包AI

STARLINK-11229是美国于2024年8月31日发射的星链卫星,归属SpaceX星链互联网卫星星座项目。星链旨在通过近地轨道卫星群提供全球覆盖的高速互联网服务,该卫星入轨后将参与组网,进一步扩展星链星座的服务覆盖范围与通信能力,助力全球宽带互联网接入服务落地。

基本信息
目录编号:
60908
目录名称:
STARLINK-11229
国际标识:
2024-154F
轨道中心:
EARTH
卫星名称:
星链-11229
卫星全名:
星链-11229 (STARLINK-11229)
卫星状态:
在轨 (已飞行607 天)
发射日期:
2024-08-31 UTC
国别 :
美国 (US)
星等 :
--
轨道信息
数据来源 国际轨道数据
星历时间: 2026-04-30T02:14:07+0800
15小时前
查看轨道信息
半长轴: 6737.861km
偏心率: 0.0000862
轨道倾角: 53.159°
近地点辐角 83.306°
升交点赤经 239.643°
平近点角 276.805°
近地点: 359.143km
远地点: 360.305km
周期: 91.737分钟
每日圈数: 15.697113
详细信息
固有亮度:
5
最大亮度:
2.5
卫星平台:
Starlink V1.0
覆盖范围:
全球
运营商:
太空探索技术公司
运营商所在国:
美国
制造商(研发单位):
太空探索技术公司
制造商所在国:
美国
使用方式:
暂无
卫星简介
Starlink 计划是 SpaceX 推出的全球卫星互联网项目,通过发射低轨道卫星,为全球尤其是偏远地区提供高速、低延迟的互联网服务。自 2019 年起,Starlink 已部署数千颗卫星,旨在缩小全球数字鸿沟,推动互联网普及。该项目还为军事、航空等行业提供通信支持,带来广泛经济效益。
2D轨道图
3D轨道图
轨道高度分析图
轨道倾角分析图
轨道综合分析图
查看轨道综合分析图